Location: Caribou
(46.8667°N, 68.0167°W)
Time: 23:26:06
(UTC-04:00)

Daily predictions for brighter satellites

Satellite Brightness Start Highest point End
(mag) Time Altitude Azimuth Time Altitude Azimuth Time Altitude Azimuth
Cosmos 2082 Rocket 2.3 19:18:46 10° NNW 19:24:26 60° ENE 19:30:02 10° SE
SL-27 R/B 4.4 19:22:22 10° NW 19:25:40 34° WSW 19:28:58 10° S
Resurs 01 Rocket 1.8 19:21:28 10° SSE 19:25:46 55° ENE 19:30:07 10° N
H-2A R/B 3.0 19:22:04 10° SSE 19:25:52 53° ENE 19:29:44 10° N
Cosmos 1605 Rocket 4.1 19:21:27 10° S 19:27:38 63° E 19:33:56 10° NNE
USA 186 2.7 19:27:07 10° ESE 19:28:38 16° ENE 19:30:08 10° NNE
FengYun 1-2 T 4.3 19:23:15 10° SSE 19:28:51 80° ENE 19:34:31 10° NNW
CZ-4B DEB 4.5 19:29:09 10° ESE 19:31:12 17° ENE 19:33:15 10° NNE
Meteor 1-24 Rocket 4.5 19:28:08 10° NNW 19:33:33 59° W 19:39:08 10° S
ISS -2.3 19:35:27 10° S 19:37:51 19° SE 19:40:02 11° E
Cosmos 2123 Rocket 4.3 19:32:55 10° NNW 19:39:15 77° W 19:45:30 10° S
Cosmos 1818 4.2 19:40:52 10° NW 19:46:13 58° WSW 19:51:31 10° SSE
SAR-Lupe-4 4.0 19:43:14 10° SE 19:46:38 42° ENE 19:50:04 10° N
Cosmos 1269 Rocket 4.0 19:41:26 10° NNW 19:46:46 85° ENE 19:52:03 10° SSE
COSMOS 2487 2.4 19:44:13 10° NNW 19:47:49 83° ENE 19:51:24 10° SSE
USA 215 4.5 19:44:26 10° E 19:48:43 18° ESE 19:52:58 10° SSE
Cosmos 1271 Rocket 3.5 19:47:26 10° SSE 19:51:03 33° E 19:54:41 10° NNE
Cosmos 372 Rocket 4.1 19:46:31 10° S 19:51:27 51° ESE 19:56:27 10° NNE
Cosmos 1758 3.2 19:47:45 10° S 19:51:44 75° E 19:55:44 10° NNE
Cosmos 158 Rocket 3.9 19:46:56 10° NNW 19:52:05 80° ENE 19:57:20 10° SSE
Cosmos 1674 2.6 19:52:06 10° N 19:55:52 64° ENE 19:59:39 10° SSE
Lacrosse 5 2.4 19:50:54 10° WSW 19:55:55 60° NNW 20:00:58 10° NE
Cosmos 1953 2.3 19:54:04 10° S 19:58:08 81° E 20:02:12 10° N
Cosmos 1408 Rocket 3.5 19:54:09 10° N 19:58:38 71° E 20:03:05 10° SSE
Resurs 1-3 3.8 19:56:57 10° S 20:01:20 77° WSW 20:05:45 10° NNW
Cosmos 2151 4.3 20:00:30 10° NNE 20:03:51 22° ENE 20:05:23 18° E
SAR-Lupe-1 4.1 20:01:49 10° SSE 20:05:20 61° ENE 20:08:54 10° N
Helios 1B rocket 2.7 20:02:28 10° NNE 20:06:27 45° E 20:10:23 10° S
Cosmos 1939 Rocket 3.4 20:07:01 17° SE 20:09:54 41° ENE 20:13:49 10° N
Meteor 1-4 Rocket 2.9 20:06:48 10° SSW 20:10:14 64° WNW 20:13:44 10° N
Cosmos 2061 Rocket 4.2 20:06:17 10° SSE 20:12:26 53° E 20:18:40 10° NNE
SJ-11-01 4.5 20:09:33 13° SE 20:13:35 52° ENE 20:18:10 10° N
Timation 2 Rocket 4.1 20:08:11 10° NNW 20:14:31 74° WSW 20:20:34 10° SSE
Spot 2 Rocket 4.2 20:10:01 10° S 20:15:01 57° W 20:20:05 10° NNW
Cosmos 494 Rocket 4.2 20:10:43 10° NNW 20:15:42 50° ENE 20:18:58 21° SE
Lacrosse 5 rocket 1.5 20:12:08 10° WNW 20:16:04 62° SW 20:18:26 21° SSE
Cosmos 1842 Rocket 4.3 20:13:25 15° SE 20:16:23 32° E 20:20:18 10° NNE
Lacrosse 4 Rocket 4.3 20:14:56 10° WNW 20:17:17 15° NW 20:19:39 10° N
Cosmos 1459 Rocket 4.0 20:11:23 10° S 20:17:30 61° E 20:23:34 10° NNE
Cosmos 2369 Rocket 3.8 20:20:09 15° ENE 20:20:09 15° ENE 20:21:47 10° ENE
Cosmos 1076 Rocket 4.4 20:14:41 10° NNW 20:18:48 49° W 20:22:53 10° SSW
Cosmos 389 Rocket 4.2 20:21:14 18° ENE 20:21:14 18° ENE 20:22:44 10° NE
Cosmos 1626 4.1 20:18:28 10° NNE 20:20:11 14° ENE 20:20:11 14° ENE
SWAS 4.3 20:17:32 10° SSW 20:21:50 81° ESE 20:26:11 10° NNE
USA 267 4.1 20:18:51 14° E 20:24:06 42° NNE 20:30:11 10° NW
Cosmos 2344 4.3 20:16:35 10° WSW 20:24:14 61° NW 20:33:22 10° NE
CZ-2D R/B 4.4 20:21:34 10° S 20:25:17 44° W 20:29:03 10° NNW
Cosmos 1867 3.7 20:19:53 10° SW 20:25:21 80° NW 20:30:52 10° NE
Cosmos 2173 Rocket 3.9 20:19:34 10° S 20:25:42 69° E 20:31:58 10° NNE
Cosmos 1833 Rocket 3.5 20:22:46 10° NW 20:28:13 52° WSW 20:33:38 10° S
Helios 1A 3.4 20:26:59 10° S 20:31:07 64° WSW 20:35:18 10° NNW
Cosmos 482 Debris 4.4 20:30:03 10° W 20:31:14 25° WSW 20:31:14 25° WSW
Envisat 2.9 20:28:31 13° SSE 20:33:09 85° ENE 20:38:16 10° NNW
Cosmos 1184 Rocket 2.7 20:30:33 10° N 20:33:58 74° ENE 20:35:05 39° SSE
Meteor 2-17 Rocket 4.5 20:28:26 10° S 20:34:26 58° E 20:40:27 10° NNE
Cosmos 2278 Rocket 4.1 20:36:24 10° WSW 20:41:26 32° NW 20:46:30 10° NNE
Geosat 3.9 20:37:50 10° NNE 20:42:55 87° ESE 20:47:56 10° SSW
ATLAS 5 CENTAUR R/B 1.8 20:38:55 10° SW 20:43:40 85° NW 20:48:55 10° NE
ERS-1 Rocket 3.0 20:43:16 31° SE 20:45:34 62° ENE 20:50:33 10° N
Cosmos 1733 3.8 20:42:04 10° SSW 20:45:53 59° WNW 20:49:44 10° N
Cosmos 1470 3.5 20:43:36 10° SSW 20:47:30 54° WNW 20:51:26 10° N
Cosmos-2242 3.8 20:46:05 10° SSW 20:50:14 51° WNW 20:54:25 10° N
H-2A R/B 3.3 20:50:23 24° ENE 20:50:56 24° ENE 20:55:06 10° N
Cosmos 1356 Rocket 3.3 20:48:43 10° NNW 20:52:51 87° WSW 20:54:14 41° S
GP-B 4.4 20:49:08 10° SSW 20:53:19 41° W 20:57:34 10° NNW
Cosmos 2016 Rocket 3.9 20:51:40 10° S 20:57:52 86° E 21:04:03 10° N
CZ-4C R/B 4.4 21:03:34 10° NE 21:03:34 10° NE 21:03:39 10° NE
Cosmos 1340 Rocket 4.3 20:55:22 10° NNW 20:59:04 35° W 21:02:28 11° SSW
USA 186 4.3 20:58:52 10° WSW 20:59:25 11° W 20:59:58 10° W
BREEZE-M DEB (TANK) 4.0 20:57:20 10° WSW 21:01:01 87° NNW 21:14:40 10° ENE
Resurs 01 Rocket 4.4 20:59:42 10° SW 21:02:36 17° W 21:05:29 10° NW
Cosmos 1725 Rocket 3.9 21:02:51 19° S 21:07:31 73° E 21:13:42 10° NNE
Cosmos 2221 3.5 21:09:05 34° NE 21:09:05 34° NE 21:11:57 10° NNE
Cosmos 2082 Rocket 4.3 21:03:40 10° NW 21:08:04 23° WSW 21:12:25 10° SSW
MetOp-A 4.1 21:07:54 48° SE 21:09:19 69° ENE 21:14:39 10° N
ISS -2.4 21:10:43 10° WSW 21:12:44 34° WSW 21:12:44 34° WSW
ARGOS 3.2 21:13:46 52° E 21:14:29 56° ENE 21:19:44 10° N
Cosmos 1500 Rocket 4.4 21:13:29 10° NNW 21:17:39 47° W 21:19:25 29° SSW
H-2A R/B 3.7 21:20:01 21° NE 21:20:01 21° NE 21:22:03 10° N
Meteor 1-11 4.4 21:13:35 10° NNW 21:19:08 68° W 21:21:49 31° S
Cosmos 1805 Rocket 3.9 21:17:10 10° N 21:20:54 52° NE 21:20:54 52° NE
SL-14 R/B 4.4 21:18:11 10° NNW 21:21:50 40° W 21:22:48 34° SW
YAOGAN 6 3.3 21:24:20 50° WSW 21:24:24 50° W 21:28:03 10° NNW
Cosmos 2058 3.1 21:21:05 10° NNW 21:25:14 66° W 21:25:21 66° WSW
CZ-3B DEB 3.2 21:18:59 10° W 21:25:44 35° NNW 21:27:42 23° NNE
Tsikada Rocket 4.0 21:20:06 10° NNW 21:26:20 77° W 21:29:10 35° S
Cosmos 2251 Rocket 4.4 21:21:18 10° NNW 21:26:21 45° WSW 21:28:42 28° SSW
Cosmos 2346 Rocket 4.4 21:20:17 10° N 21:26:31 70° E 21:27:43 56° SE
USA 215 3.1 21:26:04 10° ENE 21:32:34 65° SE 21:39:02 10° SW
SPOT 1/Viking Rocket 3.5 21:34:49 65° ENE 21:34:49 65° ENE 21:39:53 10° N
Lacrosse 5 3.7 21:35:22 10° WNW 21:39:44 28° N 21:42:48 16° NE
Cosmos 2151 4.2 21:37:23 10° NNW 21:41:17 36° W 21:42:00 33° WSW
SPOT 5 3.1 21:42:54 70° SSW 21:43:24 77° WSW 21:48:44 10° NNW
Meteor 2-1 Rocket 4.3 21:43:32 44° SSW 21:45:25 75° WNW 21:51:06 10° N
Cosmos 2297 Rocket 4.5 21:45:31 10° N 21:47:42 12° NNE 21:48:56 11° NE
Terra 3.1 21:52:12 32° NNE 21:52:12 32° NNE 21:55:11 10° N
SL-08 RB Rocket 4.2 21:52:46 60° NNW 21:52:46 60° NNW 21:56:38 10° NNW
Cosmos 1626 4.0 21:52:39 10° NNW 21:54:52 30° NW 21:54:52 30° NW
Cosmos 2369 Rocket 2.2 22:01:46 77° NW 22:01:46 77° NW 22:07:13 10° NNE
Cosmos 1833 4.3 21:58:10 10° NNW 22:03:12 70° N 22:03:12 70° N
USA 267 3.1 22:06:11 76° E 22:06:42 82° NNE 22:13:16 10° NW
Cosmos 2233 Rocket 4.3 22:10:13 50° SW 22:11:34 62° WNW 22:17:40 10° N
Cosmos 2227 Rocket 4.0 22:10:37 10° N 22:14:29 20° NE 22:14:29 20° NE
Cosmos 1943 Rocket 3.6 22:28:51 28° NNE 22:28:51 28° NNE 22:31:28 10° NNE
ATLAS 5 CENTAUR R/B 4.2 22:25:13 10° W 22:29:11 23° NNW 22:33:27 10° NNE
H-2A R/B 2.9 22:31:00 48° WNW 22:31:00 48° WNW 22:35:13 10° NNW
CZ-4C R/B 3.4 22:48:37 39° N 22:48:37 39° N 22:52:52 10° NE
Cosmos 2219 4.3 22:50:39 10° NNW 22:54:14 41° NNW 22:54:14 41° NNW
ATLAS 3B R/B 4.0 23:06:57 30° NE 23:06:57 30° NE 23:10:16 10° NE
USA 215 3.8 23:09:11 10° NE 23:15:31 54° NNW 23:21:50 10° W
Lacrosse 5 4.0 23:19:31 10° NW 23:22:01 23° NNW 23:22:01 23° NNW
Terra 4.3 23:31:04 17° NW 23:31:04 17° NW 23:32:30 10° NW
Cosmos 2297 Rocket 3.9 23:27:47 10° NNW 23:30:44 29° N 23:30:44 29° N
